Teterboro, NJ

11:21 AM EST on November 21, 2019 (GMT -0500)
Teterboro

Weather History for KTEB - September, 2019

Change the Weather History Date:

Monday, September 2, 2019

  Actual Average Record
Temperature  
Mean Temperature 78 °F -  
Max Temperature 87 °F 79 °F 95 °F (2010)
Min Temperature 69 °F 61 °F 49 °F (1991)
Cooling Degree Days 13    
Growing Degree Days 28 (Base 50)    
Moisture  
Dew Point 67 °F    
Average Humidity 78    
Maximum Humidity 88    
Minimum Humidity 57    
Precipitation  
Precipitation 0.27 in - - ()
Sea Level Pressure  
Sea Level Pressure 30.03 in    
Wind  
Wind Speed 6 mph ()    
Max Wind Speed 15 mph    
Max Gust Speed 21 mph    
Visibility 8.5 miles    
Events Rain , Thunderstorm    
Averages and records for this station are not official NWS values.
T = Trace of Precipitation, MM = Missing Value Source: Averaged Metar Reports

Daily Weather History Graph

Daily Weather History Graph

Search for Another Location

Airport or City:

Astronomy

Sep. 02, 2019 Rise Set
Actual Time 6:23 AM EDT 7:27 PM EDT
Civil Twilight 5:55 AM EDT 7:55 PM EDT
Nautical Twilight 5:22 AM EDT 8:28 PM EDT
Astronomical Twilight 4:47 AM EDT 9:03 PM EDT
Moon 10:04 AM EDT (9/2) 9:45 PM EDT (9/2)
Length of Visible Light 13h 59m
Length of Day
13h 03m
Waxing Crescent, 15% of the Moon is Illuminated
Sep 2
Waxing Crescent
Sep 5
First Quarter
Sep 14
Full
Sep 21
Last Quarter
Sep 28
New

Hourly Weather History & Observations

Time (EDT) Temp. Heat Index Dew Point Humidity Pressure Visibility Wind Dir Wind Speed Gust Speed Precip Events Conditions
12:51 AM 71.1 °F - 60.1 °F 68% 30.20 in 10.0 mi SSE 5.8 mph - N/A   Partly Cloudy
1:51 AM 71.1 °F - 60.1 °F 68% 30.19 in 10.0 mi SSE 5.8 mph - N/A   Clear
2:51 AM 70.0 °F - 61.0 °F 73% 30.17 in 10.0 mi SSE 4.6 mph - N/A   Clear
3:51 AM 70.0 °F - 60.1 °F 71% 30.14 in 10.0 mi SSE 6.9 mph - N/A   Clear
4:51 AM 70.0 °F - 60.1 °F 71% 30.13 in 10.0 mi South 8.1 mph - N/A   Clear
5:51 AM 69.1 °F - 61.0 °F 75% 30.13 in 10.0 mi South 4.6 mph - N/A   Mostly Cloudy
6:51 AM 71.1 °F - 62.1 °F 73% 30.11 in 10.0 mi SSE 9.2 mph - N/A   Mostly Cloudy
7:51 AM 72.0 °F - 62.1 °F 71% 30.10 in 10.0 mi SSE 8.1 mph - N/A   Mostly Cloudy
8:51 AM 73.0 °F - 63.0 °F 71% 30.09 in 10.0 mi South 15.0 mph - N/A   Overcast
9:51 AM 75.0 °F - 64.0 °F 69% 30.08 in 10.0 mi South 13.8 mph 18.4 mph N/A   Overcast
10:32 AM 72.0 °F - 66.0 °F 81% 30.06 in 6.0 mi South 9.2 mph - 0.02 in Rain Light Rain
10:51 AM 72.0 °F - 66.9 °F 84% 30.04 in 10.0 mi South 8.1 mph - 0.05 in Rain Light Rain
11:51 AM 73.0 °F - 68.0 °F 84% 30.03 in 10.0 mi South 6.9 mph - 0.01 in Rain Light Rain
12:34 PM 73.0 °F - 69.1 °F 87% 30.02 in 3.0 mi South 10.4 mph - 0.00 in Rain Rain
12:49 PM 73.4 °F - 69.8 °F 88% 30.02 in 9.0 mi South 10.4 mph - 0.05 in Rain Light Rain
12:51 PM 73.9 °F - 69.1 °F 85% 30.01 in 10.0 mi South 11.5 mph - 0.05 in   Overcast
1:51 PM 75.0 °F - 68.0 °F 79% 29.99 in 8.0 mi SSE 8.1 mph - 0.00 in Rain , Thunderstorm Light Rain
2:11 PM 73.9 °F - 68.0 °F 82% 29.99 in 2.5 mi South 6.9 mph - 0.04 in Rain Light Rain
2:18 PM 73.9 °F - 69.1 °F 85% 29.98 in 4.0 mi SSE 5.8 mph - 0.09 in Rain , Thunderstorm Light Thunderstorms and Rain
2:28 PM 73.0 °F - 69.1 °F 87% 29.98 in 7.0 mi Calm Calm - 0.11 in Rain , Thunderstorm Light Thunderstorms and Rain
2:42 PM 73.0 °F - 69.1 °F 87% 29.98 in 3.0 mi Calm Calm - 0.16 in Rain , Thunderstorm Light Rain
2:51 PM 73.9 °F - 70.0 °F 87% 29.97 in 3.0 mi Calm Calm - 0.16 in Thunderstorm Mostly Cloudy
2:55 PM 75.0 °F - 70.0 °F 84% 29.97 in 4.0 mi Calm Calm - N/A   Mostly Cloudy
3:02 PM 75.0 °F - 69.1 °F 82% 29.97 in 10.0 mi SSE 3.5 mph - N/A   Mostly Cloudy
3:51 PM 78.1 °F - 70.0 °F 76% 29.96 in 10.0 mi SE 6.9 mph - N/A   Mostly Cloudy
4:51 PM 87.1 °F 92.0 °F 70.0 °F 57% 29.95 in 10.0 mi SSE 10.4 mph 20.7 mph N/A   Mostly Cloudy
5:51 PM 82.0 °F 85.5 °F 69.1 °F 65% 29.94 in 10.0 mi SSE 11.5 mph 19.6 mph N/A   Partly Cloudy
6:51 PM 78.1 °F - 68.0 °F 71% 29.94 in 10.0 mi South 6.9 mph - N/A   Clear
7:51 PM 73.9 °F - 68.0 °F 82% 29.95 in 10.0 mi South 5.8 mph - N/A   Clear
8:51 PM 78.1 °F - 70.0 °F 76% 29.95 in 10.0 mi SSW 5.8 mph - N/A   Clear
9:51 PM 73.0 °F - 68.0 °F 84% 29.96 in 10.0 mi SE 3.5 mph - N/A   Clear
10:51 PM 73.0 °F - 68.0 °F 84% 29.97 in 10.0 mi Calm Calm - N/A   Clear
11:40 PM 73.0 °F - 68.0 °F 84% 29.97 in 10.0 mi NNW 4.6 mph - N/A   Mostly Cloudy
11:51 PM 72.0 °F - 68.0 °F 87% 29.98 in 10.0 mi Calm Calm - N/A   Mostly Cloudy